| time (UTC) | temp F | wind direction | speed knots | gust knots | rain 1hr in | rain 24hr in | rain mn in | humidity % | barometer mb |
| 20260502194617 | 58 | 46 | 0.0 | 2.6 | 0.00 | 0.02 | 0.02 | 60 | 1010.5 |
| 20260502193100 | 59 | 7 | 0.9 | 2.6 | 0.00 | 0.02 | 0.02 | 59 | 1010.8 |
| 20260502191555 | 58 | 129 | 0.0 | 0.9 | 0.00 | 0.02 | 0.02 | 62 | 1010.9 |
| 20260502190104 | 58 | 143 | 0.0 | 1.7 | 0.00 | 0.02 | 0.02 | 64 | 1011.1 |
| 20260502184557 | 57 | 39 | 0.0 | 1.7 | 0.00 | 0.02 | 0.02 | 65 | 1011.3 |
| 20260502183050 | 57 | 331 | 0.0 | 1.7 | 0.00 | 0.02 | 0.02 | 74 | 1011.3 |
| 20260502181546 | 56 | 136 | 0.0 | 1.7 | 0.00 | 0.02 | 0.02 | 72 | 1011.6 |
| 20260502180106 | 56 | 212 | 0.0 | 3.5 | 0.00 | 0.02 | 0.02 | 77 | 1011.3 |
| 20260502163036 | 54 | 217 | 0.0 | 2.6 | 0.00 | 0.02 | 0.02 | 83 | 1013.3 |
| 20260502161535 | 53 | 26 | 0.0 | 0.9 | 0.00 | 0.02 | 0.02 | 83 | 1013.2 |
| 20260502151531 | 53 | 269 | 0.0 | 0.9 | 0.02 | 0.02 | 0.02 | 86 | 1013.0 |
| 20260502123017 | 53 | 213 | 0.0 | 0.9 | 0.00 | 0.00 | 0.00 | 84 | 1011.7 |
| 20260502121522 | 52 | 213 | 0.0 | 0.9 | 0.00 | 0.00 | 0.00 | 84 | 1011.9 |
| 20260502114515 | 52 | 226 | 0.0 | 0.9 | 0.00 | 0.00 | 0.00 | 84 | 1012.0 |
| 20260502113018 | 52 | 137 | 0.0 | 0.9 | 0.00 | 0.00 | 0.00 | 84 | 1012.0 |
| 20260502111514 | 53 | 137 | 0.0 | 1.7 | 0.00 | 0.00 | 0.00 | 84 | 1012.0 |
| 20260502110014 | 53 | 215 | 0.0 | 0.9 | 0.00 | 0.00 | 0.00 | 84 | 1012.0 |
| 20260502104512 | 53 | 217 | 0.0 | 0.9 | 0.00 | 0.00 | 0.00 | 85 | 1011.9 |
| 20260502103012 | 53 | 192 | 0.0 | 1.7 | 0.00 | 0.00 | 0.00 | 85 | 1011.8 |
| 20260502101512 | 53 | 209 | 0.0 | 0.9 | 0.00 | 0.00 | 0.00 | 86 | 1011.8 |
| 20260502091508 | 53 | 226 | 0.0 | 0.9 | 0.00 | 0.00 | 0.00 | 86 | 1011.1 |
| 20260502070058 | 52 | 122 | 0.0 | 0.9 | 0.00 | 0.00 | 0.00 | 86 | 1010.9 |
| 20260502064601 | 52 | 122 | 0.0 | 0.9 | 0.00 | 0.00 | 0.00 | 86 | 1010.9 |
| 20260502063104 | 53 | 122 | 0.0 | 0.9 | 0.00 | 0.00 | 0.00 | 85 | 1011.0 |
| 20260502061555 | 53 | 122 | 0.0 | 0.9 | 0.00 | 0.00 | 0.00 | 84 | 1011.0 |
| 20260502060108 | 53 | 131 | 0.0 | 0.9 | 0.00 | 0.00 | 0.00 | 84 | 1011.0 |
| 20260502054552 | 53 | 149 | 0.0 | 1.7 | 0.00 | 0.00 | 0.00 | 84 | 1011.2 |
| 20260502053057 | 53 | 186 | 0.0 | 0.0 | 0.00 | 0.00 | 0.00 | 85 | 1011.7 |
| 20260502051556 | 53 | 142 | 0.0 | 0.9 | 0.00 | 0.00 | 0.00 | 85 | 1011.8 |
| 20260502050056 | 52 | 105 | 0.0 | 0.9 | 0.00 | 0.00 | 0.00 | 86 | 1011.8 |
| 20260502044543 | 52 | 93 | 0.0 | 0.9 | 0.00 | 0.00 | 0.00 | 85 | 1011.9 |
| 20260502043041 | 52 | 93 | 0.0 | 0.0 | 0.00 | 0.00 | 0.00 | 85 | 1012.1 |
| 20260502041541 | 52 | 93 | 0.0 | 0.9 | 0.00 | 0.00 | 0.00 | 85 | 1012.1 |
| 20260502040038 | 52 | 93 | 0.0 | 0.9 | 0.00 | 0.00 | 0.00 | 84 | 1012.1 |
| 20260502034538 | 52 | 93 | 0.0 | 0.0 | 0.00 | 0.00 | 0.00 | 84 | 1012.1 |
| 20260502033039 | 52 | 93 | 0.0 | 0.9 | 0.00 | 0.00 | 0.00 | 83 | 1012.1 |
| 20260502031541 | 52 | 127 | 0.0 | 0.0 | 0.00 | 0.00 | 0.00 | 83 | 1012.2 |
| 20260502030036 | 53 | 287 | 0.0 | 0.9 | 0.00 | 0.00 | 0.00 | 82 | 1012.2 |
| 20260502024537 | 53 | 305 | 0.0 | 0.9 | 0.00 | 0.00 | 0.00 | 82 | 1011.9 |
| 20260502023034 | 53 | 307 | 0.0 | 0.9 | 0.00 | 0.00 | 0.00 | 81 | 1012.1 |
| 20260502021535 | 53 | 277 | 0.0 | 0.9 | 0.00 | 0.00 | 0.00 | 81 | 1012.0 |
| 20260502020034 | 53 | 170 | 0.0 | 0.9 | 0.00 | 0.00 | 0.00 | 80 | 1012.0 |
| 20260502014535 | 53 | 242 | 0.0 | 0.9 | 0.00 | 0.00 | 0.00 | 80 | 1012.2 |
| 20260502013033 | 53 | 43 | 0.0 | 1.7 | 0.00 | 0.00 | 0.00 | 79 | 1012.1 |
| 20260502011554 | 53 | 233 | 0.0 | 0.9 | 0.00 | 0.00 | 0.00 | 78 | 1011.9 |
| 20260502010034 | 54 | 262 | 0.0 | 0.9 | 0.00 | 0.00 | 0.00 | 78 | 1011.8 |
| 20260502004551 | 54 | 321 | 0.0 | 1.7 | 0.00 | 0.00 | 0.00 | 76 | 1011.5 |
| 20260502003030 | 55 | 282 | 0.0 | 1.7 | 0.00 | 0.00 | 0.00 | 74 | 1011.3 |
| 20260502001532 | 55 | 179 | 0.0 | 1.7 | 0.00 | 0.00 | 0.00 | 73 | 1011.3 |
| 20260502000030 | 56 | 221 | 0.0 | 2.6 | 0.00 | 0.00 | 0.00 | 71 | 1011.1 |
| 20260501234537 | 57 | 167 | 0.0 | 2.6 | 0.00 | 0.00 | 0.00 | 69 | 1011.1 |
| 20260501233028 | 58 | 293 | 0.0 | 3.5 | 0.00 | 0.00 | 0.00 | 66 | 1011.1 |
| 20260501231537 | 60 | 325 | 0.0 | 2.6 | 0.00 | 0.00 | 0.00 | 65 | 1010.9 |
| 20260501230024 | 62 | 295 | 0.0 | 3.5 | 0.00 | 0.00 | 0.00 | 60 | 1011.0 |
| 20260501224520 | 63 | 233 | 0.9 | 5.2 | 0.00 | 0.00 | 0.00 | 57 | 1011.1 |
| 20260501223017 | 65 | 334 | 0.9 | 4.3 | 0.00 | 0.00 | 0.00 | 53 | 1011.0 |
| 20260501221515 | 67 | 198 | 0.9 | 3.5 | 0.00 | 0.00 | 0.00 | 49 | 1011.0 |
| 20260501220013 | 67 | 265 | 0.9 | 4.3 | 0.00 | 0.00 | 0.00 | 50 | 1011.1 |
| 20260501214515 | 67 | 47 | 0.9 | 5.2 | 0.00 | 0.00 | 0.00 | 47 | 1011.2 |
| 20260501213018 | 69 | 6 | 0.9 | 5.2 | 0.00 | 0.00 | 0.00 | 50 | 1011.1 |
| 20260501211510 | 68 | 290 | 0.9 | 2.6 | 0.00 | 0.00 | 0.00 | 45 | 1011.2 |
| 20260501210008 | 67 | 72 | 0.0 | 3.5 | 0.00 | 0.00 | 0.00 | 48 | 1011.2 |
| 20260501204508 | 67 | 275 | 0.0 | 3.5 | 0.00 | 0.00 | 0.00 | 47 | 1011.3 |
| 20260501203007 | 67 | 292 | 0.9 | 3.5 | 0.00 | 0.00 | 0.00 | 48 | 1011.4 |
| 20260501201505 | 67 | 359 | 0.9 | 5.2 | 0.00 | 0.00 | 0.00 | 46 | 1011.6 |
| 20260501200004 | 69 | 278 | 0.0 | 2.6 | 0.00 | 0.00 | 0.00 | 49 | 1012.0 |